When you browse on this site, cookies collect data to enhance your experience and personalize the content and advertising you see.
Visit our Privacy Policy to learn more. By continuing to use the site, you agree to this use of cookies and data.
  • In Spain
  • List of Countries
  • For 7 days
  • Water Temperature
  • Weather Map
  • Weather Widgets
  • user-avatar
    Login

    Hourly Weather Lankaran

    Today, 8 April, Wednesday

    Time Temperature Precipitation Wind Pressure Humidity
    00:00 -7°C° 1.2 mm 2 mps 637 mmHg 97%
    01:00 -7°C° 1.5 mm 2 mps 637 mmHg 97%
    02:00 -7°C° 1.5 mm 2 mps 637 mmHg 97%
    03:00 -7°C° 0 mm 3 mps 637 mmHg 95%
    04:00 -7°C° 1.6 mm 3 mps 638 mmHg 95%
    05:00 -7°C° 1.6 mm 3 mps 638 mmHg 94%
    06:00 -7°C° 1.6 mm 3 mps 639 mmHg 94%
    07:00 -6°C° 1.4 mm 3 mps 639 mmHg 94%
    08:00 -7°C° 1.4 mm 4 mps 639 mmHg 93%
    09:00 -7°C° 1.4 mm 4 mps 640 mmHg 92%
    10:00 -7°C° 1 mm 4 mps 640 mmHg 91%
    11:00 -7°C° 1 mm 4 mps 639 mmHg 91%
    12:00 -7°C° 1 mm 4 mps 639 mmHg 91%
    13:00 -5°C° 0.3 mm 3 mps 639 mmHg 90%
    14:00 -5°C° 0.3 mm 3 mps 638 mmHg 89%
    15:00 -5°C° 0.3 mm 3 mps 638 mmHg 88%
    16:00 -6°C° 0.1 mm 3 mps 637 mmHg 90%
    17:00 -5°C° 0.1 mm 2 mps 637 mmHg 91%
    18:00 -6°C° 0.1 mm 2 mps 637 mmHg 93%
    19:00 -4°C° 0 mm 1 mps 636 mmHg 92%
    20:00 -4°C° 0 mm 1 mps 636 mmHg 91%
    21:00 -6°C° 0 mm 1 mps 636 mmHg 89%
    22:00 -6°C° 0 mm 1 mps 636 mmHg 88%
    23:00 -6°C° 0 mm 1 mps 635 mmHg 86%

    Tomorrow, 9 April, Thursday

    Time Temperature Precipitation Wind Pressure Humidity
    00:00 -6°C° 0 mm 1 mps 635 mmHg 84%
    01:00 -6°C° 0 mm 1 mps 634 mmHg 83%
    02:00 -4°C° 0 mm 1 mps 634 mmHg 81%
    03:00 -4°C° 0 mm 1 mps 633 mmHg 80%
    04:00 -4°C° 0 mm 1 mps 633 mmHg 82%
    05:00 -3°C° 0 mm 1 mps 633 mmHg 84%
    06:00 -3°C° 0 mm 1 mps 633 mmHg 86%
    07:00 -2°C° 0 mm 1 mps 633 mmHg 86%
    08:00 -3°C° 0 mm 2 mps 633 mmHg 87%
    09:00 -2°C° 0 mm 2 mps 633 mmHg 87%
    10:00 -1°C° 0 mm 2 mps 633 mmHg 88%
    11:00 -1°C° 0 mm 2 mps 632 mmHg 89%
    12:00 -1°C° 0 mm 2 mps 632 mmHg 90%
    13:00 +1°C° 0 mm 2 mps 631 mmHg 91%
    14:00 +1°C° 0 mm 2 mps 631 mmHg 92%
    15:00 +1°C° 0 mm 2 mps 630 mmHg 92%
    16:00 +2°C° 0 mm 1 mps 630 mmHg 93%
    17:00 +2°C° 0 mm 1 mps 630 mmHg 95%
    18:00 +1°C° 0 mm 1 mps 630 mmHg 96%
    19:00 +1°C° 0 mm 1 mps 630 mmHg 96%
    20:00 +1°C° 0 mm 1 mps 630 mmHg 97%
    21:00 0°C° 0 mm 0 mps 630 mmHg 97%
    22:00 0°C° 0 mm 0 mps 630 mmHg 97%
    23:00 0°C° 0 mm 0 mps 630 mmHg 96%

    Day after tomorrow, 10 April, Friday

    Time Temperature Precipitation Wind Pressure Humidity
    00:00 0°C° 0 mm 0 mps 630 mmHg 96%
    01:00 +1°C° 0 mm 1 mps 629 mmHg 96%
    02:00 +1°C° 0 mm 1 mps 629 mmHg 96%
    03:00 +1°C° 0 mm 1 mps 628 mmHg 96%
    04:00 +1°C° 0 mm 1 mps 629 mmHg 96%
    05:00 +1°C° 0 mm 1 mps 629 mmHg 96%
    06:00 0°C° 0 mm 0 mps 629 mmHg 96%
    07:00 +1°C° 0 mm 0 mps 629 mmHg 95%
    08:00 +2°C° 0 mm 1 mps 629 mmHg 93%
    09:00 +3°C° 0 mm 1 mps 629 mmHg 92%
    10:00 +3°C° 0 mm 1 mps 629 mmHg 91%
    11:00 +4°C° 0 mm 1 mps 629 mmHg 89%
    12:00 +4°C° 0 mm 2 mps 629 mmHg 88%
    13:00 +4°C° 0.1 mm 2 mps 629 mmHg 87%
    14:00 +4°C° 0.1 mm 2 mps 628 mmHg 87%
    15:00 +4°C° 0.1 mm 2 mps 628 mmHg 86%
    16:00 +3°C° 0.2 mm 2 mps 628 mmHg 88%
    17:00 +3°C° 0.2 mm 2 mps 628 mmHg 90%
    18:00 +2°C° 0.2 mm 2 mps 627 mmHg 93%
    19:00 +2°C° 0 mm 1 mps 628 mmHg 92%
    20:00 +2°C° 0 mm 1 mps 628 mmHg 92%
    21:00 +1°C° 0 mm 1 mps 628 mmHg 92%
    22:00 +1°C° 0 mm 1 mps 627 mmHg 91%
    23:00 +1°C° 0 mm 1 mps 627 mmHg 90%

    11 April, Saturday

    Time Temperature Precipitation Wind Pressure Humidity
    00:00 0°C° 0 mm 0 mps 627 mmHg 89%
    01:00 +1°C° 0 mm 1 mps 627 mmHg 89%
    02:00 +1°C° 0 mm 1 mps 626 mmHg 90%
    03:00 0°C° 0 mm 1 mps 626 mmHg 90%
    04:00 +1°C° 0 mm 1 mps 627 mmHg 90%
    05:00 0°C° 0 mm 0 mps 627 mmHg 89%
    06:00 +1°C° 0 mm 0 mps 627 mmHg 89%
    07:00 +3°C° 0 mm 1 mps 628 mmHg 87%
    08:00 +4°C° 0 mm 1 mps 628 mmHg 85%
    09:00 +5°C° 0 mm 1 mps 628 mmHg 83%
    10:00 +5°C° 0.1 mm 2 mps 628 mmHg 83%
    11:00 +5°C° 0.1 mm 2 mps 628 mmHg 84%
    12:00 +5°C° 0.1 mm 2 mps 628 mmHg 84%
    13:00 +5°C° 0.3 mm 2 mps 628 mmHg 84%
    14:00 +5°C° 0.3 mm 2 mps 628 mmHg 84%
    15:00 +4°C° 0.3 mm 3 mps 627 mmHg 84%
    16:00 +4°C° 0.4 mm 2 mps 627 mmHg 87%
    17:00 +4°C° 0.4 mm 2 mps 627 mmHg 90%
    18:00 +3°C° 0.4 mm 2 mps 627 mmHg 92%
    19:00 +3°C° 0.1 mm 2 mps 628 mmHg 91%
    20:00 +3°C° 0.1 mm 1 mps 628 mmHg 90%
    21:00 +3°C° 0.1 mm 1 mps 629 mmHg 89%
    22:00 +3°C° 0 mm 1 mps 629 mmHg 89%
    23:00 +3°C° 0 mm 1 mps 629 mmHg 88%

    12 April, Sunday

    Time Temperature Precipitation Wind Pressure Humidity
    00:00 +3°C° 0 mm 1 mps 629 mmHg 87%
    01:00 +3°C° 0.1 mm 1 mps 630 mmHg 88%
    02:00 +3°C° 0.1 mm 1 mps 630 mmHg 89%
    03:00 +3°C° 0.1 mm 1 mps 630 mmHg 89%
    04:00 +3°C° 0.6 mm 1 mps 630 mmHg 91%
    05:00 +3°C° 0.6 mm 1 mps 631 mmHg 92%
    06:00 +3°C° 0.6 mm 1 mps 631 mmHg 94%
    07:00 +3°C° 0.5 mm 1 mps 631 mmHg 94%
    08:00 +2°C° 0.5 mm 2 mps 632 mmHg 94%
    09:00 +2°C° 0.5 mm 2 mps 632 mmHg 94%
    10:00 +2°C° 0.2 mm 2 mps 632 mmHg 91%
    11:00 +3°C° 0.2 mm 2 mps 632 mmHg 89%
    12:00 +2°C° 0.2 mm 3 mps 633 mmHg 87%
    13:00 +2°C° 0 mm 3 mps 633 mmHg 88%
    14:00 +1°C° 0 mm 3 mps 632 mmHg 89%
    15:00 +1°C° 0 mm 3 mps 632 mmHg 91%
    16:00 +1°C° 0.1 mm 3 mps 633 mmHg 92%
    17:00 0°C° 0.1 mm 3 mps 633 mmHg 93%
    18:00 +1°C° 0.1 mm 2 mps 633 mmHg 95%
    19:00 +1°C° 0.1 mm 2 mps 633 mmHg 95%
    20:00 +1°C° 0.1 mm 2 mps 634 mmHg 95%
    21:00 -1°C° 0.1 mm 2 mps 634 mmHg 95%
    22:00 -1°C° 0.1 mm 2 mps 635 mmHg 95%
    23:00 -1°C° 0.1 mm 2 mps 635 mmHg 95%

    13 April, Monday

    Time Temperature Precipitation Wind Pressure Humidity
    00:00 -1°C° 0.1 mm 2 mps 635 mmHg 94%
    01:00 -1°C° 0.1 mm 2 mps 635 mmHg 94%
    02:00 -1°C° 0.1 mm 2 mps 635 mmHg 94%
    03:00 -2°C° 0.1 mm 2 mps 635 mmHg 94%
    04:00 -2°C° 0.5 mm 2 mps 635 mmHg 94%
    05:00 -2°C° 0.5 mm 2 mps 635 mmHg 95%
    06:00 -2°C° 0.5 mm 2 mps 636 mmHg 95%
    07:00 -2°C° 0.3 mm 2 mps 636 mmHg 94%
    08:00 -1°C° 0.3 mm 2 mps 636 mmHg 93%
    09:00 -1°C° 0.3 mm 2 mps 636 mmHg 92%
    10:00 +1°C° 0.1 mm 2 mps 636 mmHg 92%
    11:00 +1°C° 0.1 mm 2 mps 636 mmHg 91%
    12:00 +1°C° 0.1 mm 2 mps 636 mmHg 90%
    13:00 +1°C° 0 mm 2 mps 636 mmHg 90%
    14:00 +2°C° 0 mm 2 mps 636 mmHg 89%
    15:00 +2°C° 0 mm 2 mps 635 mmHg 88%
    16:00 +2°C° 0 mm 2 mps 635 mmHg 90%
    17:00 +1°C° 0 mm 2 mps 635 mmHg 91%
    18:00 +2°C° 0 mm 1 mps 634 mmHg 93%
    19:00 +2°C° 0 mm 1 mps 634 mmHg 93%
    20:00 +1°C° 0 mm 1 mps 634 mmHg 93%
    21:00 +1°C° 0 mm 1 mps 634 mmHg 94%
    22:00 +1°C° 0 mm 1 mps 634 mmHg 92%
    23:00 +1°C° 0 mm 1 mps 634 mmHg 91%
    Show more